Location: *
(46.4000°N, 12.6667°E)
Time: 01:14:19
(UTC+00:00)

Cosmos 1408 - Pass Details

Date: 09 April 2020
Orbit: 470 x 494 km, 82.6° (Epoch: 30 May)

Event Time Altitude Azimuth Distance (km) Brightness Sun altitude
Rises 20:42:15 0° 346° (NNW) 2,565 7.2 -26.4°
Reaches altitude 10° 20:44:23 10° 342° (NNW) 1,683 6.1 -26.6°
Enters shadow 20:46:49 36° 321° (NW) 793 4.1 -26.9°
